Weather History for KMBS - October, 2013

Change the Weather History Date:

Friday, October 4, 2013

  Actual Average Record
Temperature  
Mean Temperature 68 °F 54 °F  
Max Temperature 74 °F 64 °F 86 °F (2005)
Min Temperature 61 °F 44 °F 30 °F (1996)
Degree Days  
Heating Degree Days 0    
Month to date heating degree days 0  
Since 1 July heating degree days 160  
Cooling Degree Days 3    
Month to date cooling degree days 3  
Year to date cooling degree days 666  
Growing Degree Days 16 (Base 50)    
Moisture  
Dew Point 63 °F    
Average Humidity 87    
Maximum Humidity 100    
Minimum Humidity 73    
Precipitation  
Precipitation 0.56 in 0.10 in 2.48 in (2006)
Month to date precipitation 0.68 0.40  
Year to date precipitation 26.59 24.75  
Snow  
Snow 0.00 in - - ()
Month to date snowfall 0.0  
Since 1 July snowfall 0.0  
Since 1 September snowfall 0.0  
Snow Depth 0.00 in    
Sea Level Pressure  
Sea Level Pressure 29.99 in    
Wind  
Wind Speed 7 mph (South)    
Max Wind Speed 16 mph    
Max Gust Speed 21 mph    
Visibility 9 miles    
Events Rain    
T = Trace of Precipitation, MM = Missing Value Source: NWS Daily Summary

Daily Weather History Graph

Daily Weather History Graph

Search for Another Location

Airport or City:

Trip Planner

Search our weather history database for the weather conditions in past years. The results will help you decide how hot, cold, wet, or windy it might be!

Date:

Astronomy

Oct. 04, 2013 Rise Set
Actual Time 7:37 AM EDT 7:11 PM EDT
Civil Twilight 7:09 AM EDT 7:40 PM EDT
Nautical Twilight 6:35 AM EDT 8:13 PM EDT
Astronomical Twilight 6:02 AM EDT 8:46 PM EDT
Moon 7:12 AM EDT (10/4) 6:52 PM EDT (10/4)
Length of Visible Light 12h 31m
Length of Day
11h 33m
Waning Crescent, 0% of the Moon is Illuminated
Oct 4
Waning Crescent
Oct 4
New
Oct 11
First Quarter
Oct 18
Full
Oct 26
Last Quarter

Hourly Weather History & Observations

Time (EDT) Temp. Dew Point Humidity Pressure Visibility Wind Dir Wind Speed Gust Speed Precip Events Conditions
12:53 AM 69.1 °F 64.0 °F 84% 29.94 in 8.0 mi SW 6.9 mph - 0.01 in   Overcast
1:03 AM 68.0 °F 64.4 °F 88% 29.94 in 2.5 mi South 4.6 mph - 0.11 in Rain Light Rain
1:10 AM 68.0 °F 64.4 °F 88% 29.94 in 10.0 mi Calm Calm - 0.11 in   Overcast
1:26 AM 66.2 °F 64.4 °F 94% 29.93 in 2.5 mi South 3.5 mph - 0.23 in Rain Light Rain
1:33 AM 66.2 °F 64.4 °F 94% 29.93 in 9.0 mi Calm Calm - 0.24 in Rain Light Rain
1:48 AM 68.0 °F 64.4 °F 88% 29.94 in 10.0 mi Calm Calm - 0.24 in Rain Light Rain
1:53 AM 68.0 °F 64.9 °F 90% 29.93 in 10.0 mi Calm Calm - 0.24 in   Overcast
2:44 AM 68.0 °F 64.4 °F 88% 29.95 in 10.0 mi SW 4.6 mph - 0.00 in   Mostly Cloudy
2:53 AM 66.9 °F 64.9 °F 93% 29.94 in 10.0 mi SSW 5.8 mph - 0.00 in   Mostly Cloudy
3:53 AM 66.9 °F 64.9 °F 93% 29.91 in 10.0 mi SW 8.1 mph - 0.04 in Rain Light Rain
4:53 AM 68.0 °F 64.0 °F 87% 29.89 in 10.0 mi South 5.8 mph - 0.00 in   Clear
5:33 AM 66.2 °F 64.4 °F 94% 29.94 in 10.0 mi NNW 4.6 mph - 0.00 in Rain Light Rain
5:53 AM 66.9 °F 64.9 °F 93% 29.94 in 10.0 mi Calm Calm - 0.01 in Rain Light Rain
6:53 AM 66.9 °F 64.0 °F 90% 29.95 in 10.0 mi SSW 3.5 mph - 0.00 in   Mostly Cloudy
7:01 AM 66.2 °F 64.4 °F 94% 29.96 in 10.0 mi SSW 4.6 mph - N/A   Scattered Clouds
7:53 AM 66.0 °F 64.0 °F 93% 29.98 in 10.0 mi SSW 4.6 mph - N/A   Overcast
8:29 AM 66.2 °F 64.4 °F 94% 30.00 in 8.0 mi Calm Calm - N/A   Overcast
8:36 AM 66.2 °F 64.4 °F 94% 29.99 in 8.0 mi Calm Calm - N/A   Overcast
8:53 AM 66.9 °F 64.0 °F 90% 29.99 in 9.0 mi WSW 3.5 mph - N/A   Mostly Cloudy
9:53 AM 66.9 °F 64.9 °F 93% 29.99 in 8.0 mi SW 4.6 mph - N/A   Overcast
10:53 AM 69.1 °F 66.0 °F 90% 30.00 in 10.0 mi WSW 4.6 mph - N/A   Mostly Cloudy
11:02 AM 69.8 °F 66.2 °F 88% 30.01 in 10.0 mi SW 5.8 mph - N/A   Mostly Cloudy
11:09 AM 69.8 °F 64.4 °F 83% 30.01 in 10.0 mi SW 5.8 mph - N/A   Mostly Cloudy
11:38 AM 71.6 °F 64.4 °F 78% 30.01 in 10.0 mi WSW 4.6 mph - N/A   Mostly Cloudy
11:48 AM 71.6 °F 64.4 °F 78% 30.00 in 10.0 mi SW 4.6 mph - N/A   Overcast
11:53 AM 71.1 °F 64.9 °F 81% 29.99 in 10.0 mi SW 3.5 mph - N/A   Overcast
12:53 PM 72.0 °F 64.9 °F 78% 30.01 in 10.0 mi SSW 4.6 mph - N/A   Overcast
1:53 PM 73.0 °F 64.9 °F 76% 30.01 in 10.0 mi Calm Calm - N/A   Mostly Cloudy
2:53 PM 71.1 °F 64.9 °F 81% 30.00 in 10.0 mi NE 5.8 mph - N/A   Overcast
3:53 PM 68.0 °F 64.0 °F 87% 30.01 in 10.0 mi NNE 11.5 mph - N/A   Overcast
4:53 PM 66.9 °F 62.1 °F 84% 30.01 in 10.0 mi NE 10.4 mph - N/A   Overcast
5:16 PM 66.2 °F 62.6 °F 88% 30.02 in 10.0 mi NNE 11.5 mph - N/A   Mostly Cloudy
5:25 PM 66.2 °F 62.6 °F 88% 30.03 in 10.0 mi NNE 12.7 mph - N/A   Mostly Cloudy
5:53 PM 64.9 °F 62.1 °F 90% 30.03 in 10.0 mi NE 12.7 mph - N/A   Overcast
6:53 PM 63.0 °F 61.0 °F 93% 30.03 in 9.0 mi NE 13.8 mph - N/A   Overcast
7:53 PM 63.0 °F 60.1 °F 90% 30.06 in 10.0 mi NE 16.1 mph 19.6 mph N/A   Overcast
8:53 PM 63.0 °F 59.0 °F 87% 30.06 in 10.0 mi ENE 12.7 mph - N/A   Overcast
9:53 PM 62.1 °F 59.0 °F 90% 30.06 in 10.0 mi ENE 10.4 mph - 0.01 in Rain Light Rain
10:27 PM 60.8 °F 59.0 °F 94% 30.07 in 1.0 mi NE 11.5 mph - 0.23 in Rain Heavy Rain
10:39 PM 60.8 °F 60.8 °F 100% 30.06 in 3.0 mi ENE 11.5 mph - 0.37 in Rain Light Rain
10:50 PM 60.8 °F 60.8 °F 100% 30.06 in 10.0 mi ENE 9.2 mph - 0.37 in Rain Light Rain
10:53 PM 61.0 °F 60.1 °F 97% 30.06 in 10.0 mi ENE 9.2 mph - 0.37 in Rain Light Rain
11:40 PM 62.6 °F 60.8 °F 94% 30.07 in 10.0 mi NE 6.9 mph - 0.00 in   Overcast
11:53 PM 62.1 °F 60.1 °F 93% 30.06 in 10.0 mi NNE 6.9 mph - 0.00 in   Overcast